Regional Weather Roundup
Issued by NWS

Home | Current Version | Previous Version | Text Only | Print | Product List | Glossary Off
Versions: 1 2 3 4 5 6 7 8 9 10 11 12 13 14 15 16 17 18 19 20 21 22 23 24 25 26 27 28 29 30 31 32 33 34 35 36 37 38 39 40 41 42 43 44 45 46 47 48 49 50

000
ASUS43 KBIS 230610
RWRND

NORTH DAKOTA REGIONAL WEATHER ROUNDUP
NATIONAL WEATHER SERVICE BISMARCK ND
100 AM CDT TUE SEP 23 2014

NOTE: "FAIR" INDICATES FEW OR NO CLOUDS BELOW 12,000 FEET WITH NO
SIGNIFICANT WEATHER AND/OR OBSTRUCTIONS TO VISIBILITY.


NDZ001>003-009>011-017-230700-
NORTHWEST NORTH DAKOTA

CITY           SKY/WX    TMP DP  RH WIND       PRES   REMARKS
WILLISTON      CLEAR     58  48  69 NE3       29.87S
6HR MIN TEMP:  54; 6HR MAX TEMP:  80;

MINOT          CLEAR     56  47  71 SE6       29.91S
MINOT AFB      CLEAR     53  49  85 SE7       29.90S
$$

NDZ018>021-031>035-040>046-230700-
SOUTHWEST NORTH DAKOTA

CITY           SKY/WX    TMP DP  RH WIND       PRES   REMARKS
BISMARCK       CLEAR     60  51  72 SE8       29.94S
6HR MIN TEMP:  58; 6HR MAX TEMP:  70;

DICKINSON      CLEAR     58  50  75 S13       29.87F
GARRISON         N/A     56  50  80 SE6       29.91F
6HR MIN TEMP:  56; 6HR MAX TEMP:  74;

HETTINGER ARPT PTCLDY    56  50  80 SE7       29.91S
$$

NDZ004>008-012>016-024-026-027-054-230700-
NORTHEAST NORTH DAKOTA

CITY           SKY/WX    TMP DP  RH WIND       PRES   REMARKS
GRAND FORKS    CLEAR     54  48  80 SE7       30.03S
GRND FRKS AFB  CLEAR     53  49  86 SE7       30.03S
DEVILS LAKE    CLEAR     57  46  67 SE9       29.98S
$$

NDZ022-023-025-028>030-036>039-047>053-230700-
SOUTHEAST NORTH DAKOTA

CITY           SKY/WX    TMP DP  RH WIND       PRES   REMARKS
FARGO          CLEAR     61  48  62 SE12      30.05S
6HR MIN TEMP:  60; 6HR MAX TEMP:  73;

JAMESTOWN      CLEAR     59  49  69 S10       30.00S
$$



USA.gov is the U.S. government's official web portal to all federal, state and local government web resources and services.